Flag for France Weather past 2 weeks in Toulouse, France

Now
39 °F

Clear.


Feels Like: 39 °F
Forecast: 33 / 51 °F
Wind: No wind

Location: Toulouse / Blagnac

Current Time: Dec 21, 2014 at 10:13:01 PM

Latest Report: Dec 21, 2014 at 9:30 PM


Visibility: N/A

Pressure: 30.57 "Hg

Humidity: 81%

Dew point: 34 °F

Location of ToulouseLocation

Historic Weather in Toulouse — Graph

°F

Toulouse temperature yesterday

Maximum temperature yesterday: 54 °F (at 11:00 AM)
Minimum temperature yesterday: 43 °F (at 11:30 PM)
Average temperature yesterday: 51 °F

Past Weeks' High & Low Weather Summary

 TemperatureHumidityPressure
High55 °F (Dec 12, 2:00 PM)100% (Dec 10, 3:30 AM)30.63 "Hg (Dec 10, 3:30 AM)
Low30 °F (Dec 10, 3:30 AM)50% (Dec 7, 4:00 PM)29.80 "Hg (Dec 13, 2:00 AM)
Average46 °F86%30.26 "Hg
* Reported Dec 6 9:00 PM — Dec 21 9:00 PM, Toulouse, Weather by CustomWeather, © 2014

Note: Actual official high and low records may vary slightly from our data, if they occured in-between our weather recording intervals... More about our weather records

Advertising

Toulouse weather history for previous 24 hours

 ConditionsComfort  
Time TempWeatherWind HumidityBarometerVisibility
9:00 PM
Dec 21
39 °FClear.No wind81%30.57 "HgN/A
8:30 PM41 °FClear.2 mph81%30.57 "HgN/A
8:00 PM43 °FClear.1 mph71%30.57 "HgN/A
7:30 PM43 °FClear.2 mph76%30.57 "HgN/A
7:00 PM43 °FClear.3 mph76%30.57 "HgN/A
6:30 PM43 °FClear.3 mph76%30.57 "HgN/A
6:00 PM45 °FClear.3 mph71%30.57 "HgN/A
5:30 PM46 °FClear.5 mph66%30.57 "HgN/A
5:00 PM48 °FClear.5 mph62%30.57 "HgN/A
4:30 PM50 °FClear.5 mph58%30.57 "HgN/A
4:00 PM50 °FClear.6 mph58%30.57 "HgN/A
3:30 PM50 °FClear.6 mph58%30.57 "HgN/A
3:00 PM50 °FClear.7 mph62%30.57 "HgN/A
2:30 PM50 °FClear.6 mph58%30.57 "HgN/A
2:00 PM50 °FClear.6 mph54%30.57 "HgN/A
1:30 PM50 °FClear.5 mph58%30.60 "HgN/A
1:00 PM50 °FClear.7 mph58%30.60 "HgN/A
12:30 PM50 °FClear.7 mph58%30.60 "HgN/A
12:00 PM48 °FClear.7 mph62%30.63 "HgN/A
11:30 AM48 °FClear.6 mph62%30.63 "HgN/A
11:00 AM46 °FClear.6 mph71%30.63 "HgN/A
10:30 AM46 °FClear.3 mph71%30.63 "HgN/A
10:00 AM43 °FClear.3 mph81%30.63 "HgN/A
9:30 AM41 °FClear.1 mph87%30.63 "HgN/A
9:00 AM37 °FClear.2 mph87%30.63 "HgN/A
8:30 AM36 °FClear.3 mph93%30.63 "HgN/A
8:00 AM36 °FPassing clouds.3 mph93%30.63 "HgN/A
7:30 AM37 °FClear.5 mph87%30.60 "HgN/A
7:00 AM37 °FPassing clouds.5 mph87%30.60 "HgN/A
6:30 AM37 °FPassing clouds.6 mph93%30.60 "HgN/A
6:00 AM37 °FPassing clouds.5 mph93%30.60 "HgN/A
5:30 AM37 °FPassing clouds.3 mph93%30.60 "HgN/A
5:00 AM37 °FPassing clouds.5 mph87%30.60 "HgN/A
4:30 AM39 °FClear.5 mph87%30.60 "HgN/A
3:30 AM39 °FPassing clouds.3 mph87%30.60 "HgN/A
3:00 AM39 °FPassing clouds.5 mph87%30.60 "HgN/A
2:30 AM39 °FPassing clouds.3 mph87%30.60 "HgN/A
2:00 AM39 °FPassing clouds.6 mph87%30.60 "HgN/A
1:30 AM41 °FPassing clouds.8 mph81%30.60 "HgN/A
1:00 AM43 °FPassing clouds.7 mph76%30.60 "HgN/A
12:30 AM43 °FPassing clouds.7 mph81%30.60 "HgN/A
12:00 AM43 °FPassing clouds.8 mph81%30.60 "HgN/A
11:30 PM
Dec 20
43 °FClear.8 mph81%30.60 "HgN/A
11:00 PM45 °FClear.10 mph76%30.60 "HgN/A
10:30 PM45 °FPassing clouds.8 mph81%30.60 "HgN/A
10:00 PM46 °FOvercast.9 mph82%30.60 "HgN/A
Weather by CustomWeather, © 2014

See weather overviewHow to use our weather pages